TimeCDT,TemperatureF,Dew PointF,Humidity,Sea Level PressureIn,VisibilityMPH,Wind Direction,Wind SpeedMPH,Gust SpeedMPH,PrecipitationIn,Events,Conditions,WindDirDegrees,DateUTC
12:52 AM,72.0,72.0,100,29.95,9.0,South,18.4,-,N/A,,Overcast,170,2013-05-18 05:52:00
1:52 AM,72.0,72.0,100,29.94,8.0,South,17.3,-,N/A,,Overcast,170,2013-05-18 06:52:00
2:52 AM,72.0,72.0,100,29.94,7.0,South,16.1,-,N/A,,Overcast,190,2013-05-18 07:52:00
3:52 AM,72.0,72.0,100,29.94,7.0,South,13.8,-,N/A,,Overcast,180,2013-05-18 08:52:00
4:13 AM,71.6,71.6,100,29.94,7.0,South,12.7,-,N/A,,Overcast,180,2013-05-18 09:13:00
4:52 AM,72.0,72.0,100,29.95,7.0,South,12.7,-,N/A,,Overcast,180,2013-05-18 09:52:00
5:52 AM,71.1,71.1,100,29.94,7.0,South,13.8,-,N/A,,Overcast,180,2013-05-18 10:52:00
6:52 AM,72.0,72.0,100,29.96,5.0,South,15.0,-,N/A,,Overcast,180,2013-05-18 11:52:00
7:41 AM,71.6,71.6,100,29.97,5.0,South,12.7,-,N/A,,Overcast,180,2013-05-18 12:41:00
7:52 AM,72.0,72.0,100,29.97,5.0,South,11.5,-,N/A,,Overcast,180,2013-05-18 12:52:00
8:25 AM,73.4,73.4,100,29.98,9.0,South,12.7,-,N/A,,Overcast,170,2013-05-18 13:25:00
8:52 AM,73.0,73.0,100,29.99,5.0,South,12.7,-,N/A,,Overcast,180,2013-05-18 13:52:00
9:21 AM,73.4,73.4,100,29.98,6.0,SSE,12.7,-,N/A,,Overcast,160,2013-05-18 14:21:00
9:52 AM,75.0,73.9,96,29.98,6.0,SSE,11.5,-,N/A,,Overcast,160,2013-05-18 14:52:00
10:52 AM,75.9,73.9,94,29.99,6.0,SSE,13.8,-,N/A,,Scattered Clouds,160,2013-05-18 15:52:00
11:52 AM,78.1,73.9,87,29.98,6.0,SSE,12.7,-,N/A,,Clear,150,2013-05-18 16:52:00
12:52 PM,78.1,75.0,90,29.99,6.0,South,13.8,-,N/A,,Scattered Clouds,170,2013-05-18 17:52:00
1:20 PM,78.8,75.2,89,29.98,6.0,SSE,11.5,-,N/A,,Scattered Clouds,160,2013-05-18 18:20:00
1:52 PM,78.1,75.0,90,29.96,6.0,SSE,13.8,-,N/A,,Clear,150,2013-05-18 18:52:00
2:52 PM,79.0,75.0,88,29.95,10.0,SSE,13.8,-,N/A,,Clear,150,2013-05-18 19:52:00
3:52 PM,78.1,73.9,87,29.95,10.0,SE,12.7,-,N/A,,Clear,140,2013-05-18 20:52:00
4:25 PM,78.8,73.4,83,29.94,10.0,SSE,15.0,-,N/A,,Partly Cloudy,150,2013-05-18 21:25:00
4:52 PM,77.0,73.9,90,29.94,10.0,SSE,16.1,-,N/A,,Scattered Clouds,150,2013-05-18 21:52:00
5:52 PM,75.9,73.9,94,29.94,10.0,SE,13.8,-,N/A,,Partly Cloudy,140,2013-05-18 22:52:00
6:52 PM,75.0,73.9,96,29.94,9.0,SSE,12.7,-,N/A,,Mostly Cloudy,150,2013-05-18 23:52:00
7:52 PM,73.9,73.9,100,29.95,9.0,SSE,13.8,-,N/A,,Overcast,150,2013-05-19 00:52:00
8:52 PM,73.9,73.9,100,29.95,10.0,SSE,15.0,-,N/A,,Overcast,160,2013-05-19 01:52:00
9:52 PM,73.9,73.9,100,29.94,10.0,SSE,13.8,-,N/A,,Overcast,150,2013-05-19 02:52:00
10:52 PM,73.9,73.9,100,29.95,10.0,SSE,16.1,-,N/A,,Overcast,150,2013-05-19 03:52:00
11:52 PM,73.9,73.9,100,29.93,10.0,SSE,17.3,-,N/A,,Overcast,150,2013-05-19 04:52:00